Location: Bad Salzschlirf
(50.3750°N, 9.3000°E)
Time: 08:02:11
(UTC+01:00)

ISS - Pass Details

Date: 08 December 2018
Orbit: 401 x 408 km, 51.6° (Epoch: 12 December)

Event Time Altitude Azimuth Distance (km) Brightness Sun altitude
Rises 17:35:09 0° 283° (WNW) 2,320 1.0 -11.3°
Reaches altitude 10° 17:37:14 10° 284° (WNW) 1,458 -0.1 -11.7°
Maximum altitude 17:40:30 89° 3° (N) 407 -3.9 -12.1°
Enters shadow 17:42:53 17° 105° (ESE) 1,100 -2.1 -12.5°
